Location: Northcutt
(34.7304°N, 84.4305°W)
Time: 05:24:23
(UTC+00:00)

Vanguard 2 - Pass Details

Date: 05 October 2022
Orbit: 553 x 2933 km, 32.9° (Epoch: 04 December)

Event Time Altitude Azimuth Distance (km) Brightness Sun altitude
Rises 21:39:28 0° 279° (W) 5,516 13.0 18.5°
Reaches altitude 10° 21:42:38 10° 277° (W) 4,774 12.9 17.9°
Maximum altitude 21:57:20 73° 197° (SSW) 2,898 10.8 15.0°
Drops below altitude 10° 22:15:13 10° 117° (ESE) 5,660 11.5 11.5°
Sets 22:19:23 0° 115° (ESE) 6,544 11.8 10.7°
